Weather Roundup
Issued by NWS

Home | Current Version | Previous Version | Graphics & Text | Print | Product List | Glossary On
Versions: 1 2 3 4 5 6 7 8 9 10 11 12 13 14 15 16 17 18 19 20 21 22 23 24 25 26 27 28 29 30 31 32 33 34 35 36 37 38 39 40 41 42 43 44 45 46 47 48 49 50
000
NZUS93 KARX 230859
HRRWXR

CURRENT HOURLY OBSERVATIONS ACROSS
MUCH OF THE UPPER MISSISSIPPI VALLEY
NATIONAL WEATHER SERVICE LA CROSSE WI
400 AM CDT SUN JUL 23 2017


...SOUTHEAST MINNESOTA...


CITY           SKY/WX    TMP DP  RH WIND       PRES   REMARKS
ROCHESTER      CLEAR     65  63  93 NW8       29.85R
ROCHESTER/MAYO FAIR      67  67 100 CALM      29.84R
WINONA         FOG       68  66  94 NW3       29.82R VSB 1/2
AUSTIN         CLEAR     66  64  94 CALM      29.84S
ALBERT LEA     CLEAR     70  66  88 CALM      29.85S
DODGE CENTER   PTCLDY    66  64  94 CALM      29.86R
PRESTON        CLEAR     66  64  93 CALM      29.84S
OWATONNA       PTCLDY    64  63  94 CALM      29.86S
FARIBAULT      MOCLDY    66  66 100 CALM      29.85S
$$

...ELSEWHERE IN MINNESOTA...


CITY           SKY/WX    TMP DP  RH WIND       PRES   REMARKS
MINNEAPOLIS    MOCLDY    73  55  53 N6        29.83S
INTNL FALLS    CLOUDY    61  59  93 E6        29.85R
DULUTH         CLOUDY    53  53 100 W5        29.82F FOG
RED WING       MOCLDY    64  63  94 CALM      29.82R
REDWOOD FALLS  PTCLDY    68  60  75 NW8       29.88R
MANKATO        PTCLDY    67  64  90 N5        29.86R
WORTHINGTON    CLEAR     65  60  84 NW12      29.93R
FAIRMONT       CLEAR     68  64  87 W9        29.87S
$$

...SOUTHWEST WISCONSIN...


CITY           SKY/WX    TMP DP  RH WIND       PRES   REMARKS
LA CROSSE      FOG       70  69  97 CALM      29.79F VSB 1/4
PRAIRIE DU CHI CLEAR     68  66  94 CALM      29.81S
BOSCOBEL       FOG       67  66  97 CALM      29.81S VSB 1/4
LONE ROCK      PTCLDY    70  68  94 W5        29.80F FOG
PLATTEVILLE    CLEAR     70  70 100 NW5       29.83S
FORT MC COY    CLEAR     59  59 100 CALM      29.82S
CAMP DOUGLAS   CLEAR     63  63 100 CALM      29.79F FOG
MAUSTON-NEW LI SUNNY     68  65  88 CALM      29.79F
VIROQUA        FAIR      66  66 100 CALM      29.83F
WIS DELLS      CLEAR     68  65  92 W3        29.81S
$$

...ELSEWHERE IN WISCONSIN...


CITY           SKY/WX    TMP DP  RH WIND       PRES   REMARKS
MILWAUKEE      CLOUDY    73  71  93 SW3       29.77F
MADISON        MOCLDY    70  69  97 NW3       29.79S
GREEN BAY      CLEAR     66  66 100 SW3       29.75F
EAU CLAIRE     NOT AVBL
BLACK RVR FLS  FOG       61  61 100 CALM      29.81R VSB 1/2
MEDFORD        MOCLDY    60  60  99 CALM      29.81R FOG
WAUSAU         CLEAR     65  64  97 NW5       29.77F
WIS RAPIDS     FOG       63  63 100 CALM      29.80S VSB 1/2
MARSHFIELD     CLEAR     64  61  90 NW7       29.80S
RICE LAKE      MOCLDY    62  57  85 CALM      29.83F
$$

...NORTHEAST IOWA...


CITY           SKY/WX    TMP DP  RH WIND       PRES   REMARKS
WATERLOO       CLEAR     70  68  93 W3        29.83S
DUBUQUE        CLEAR     71  69  93 NE5       29.83S
DECORAH        FOG       68  68 100 CALM      29.82S VSB 1
MASON CITY     CLEAR     70  69  97 W6        29.87F
CHARLES CITY   CLEAR     66  66 100 W5        29.85S FOG
OELWEIN          N/A    N/A N/A N/A MISG        N/A
$$

...ELSEWHERE IN IOWA...


CITY           SKY/WX    TMP DP  RH WIND       PRES   REMARKS
DES MOINES     CLOUDY    74  72  93 W6        29.88R
IOWA CITY      PTCLDY    73  71  93 CALM      29.86R
FORT DODGE     CLEAR     66  64  94 CALM      29.90R
MARSHALLTOWN   FOG       69  69 100 CALM      29.85F VSB 1/4
CEDAR RAPIDS   CLEAR     68  68 100 W6        29.84R FOG
$$

...NORTHERN ILLINOIS...


CITY           SKY/WX    TMP DP  RH WIND       PRES   REMARKS
CHICAGO-OHARE  PTCLDY    74  69  85 CALM      29.78F
CHICAGO-MIDWAY PTCLDY    75  70  84 NW3       29.78F
MOLINE         CLOUDY    74  72  93 W5        29.83R
ROCKFORD       CLOUDY    74  72  93 CALM      29.80F
PEORIA         CLOUDY    77  76  96 W3        29.83R
$$

NOTE: "FAIR" INDICATES FEW OR NO CLOUDS BELOW 12,000 FEET WITH NO
SIGNIFICANT WEATHER AND/OR OBSTRUCTIONS TO VISIBILITY. WIND
SPEEDS ARE IN MILES-PER-HOUR.




USA.gov is the U.S. government's official web portal to all federal, state and local government web resources and services.